Capo Bellavista, Italy

1:28 PM CEST on April 25, 2017 (GMT +0200)
Capo Bellavista

Weather History for LIEB - December, 2012

Change the Weather History Date:

Monday, December 17, 2012

  Actual Average Record
Temperature  
Mean Temperature 60 °F -  
Max Temperature 65 °F 57 °F - ()
Min Temperature 54 °F 48 °F - ()
Degree Days  
Heating Degree Days 6    
Growing Degree Days 10 (Base 50)    
Moisture  
Dew Point 43 °F    
Average Humidity 59    
Maximum Humidity 100    
Minimum Humidity 28    
Precipitation  
Precipitation 0.00 in 0.07 in - ()
Sea Level Pressure  
Sea Level Pressure 29.91 in    
Wind  
Wind Speed 11 mph ()    
Max Wind Speed 28 mph    
Max Gust Speed 46 mph    
Visibility 7.5 miles    
Events      
T = Trace of Precipitation, MM = Missing Value Source: Averaged Metar Reports

Daily Weather History Graph

Daily Weather History Graph

Search for Another Location

Airport or City:

Trip Planner

Search our weather history database for the weather conditions in past years. The results will help you decide how hot, cold, wet, or windy it might be!

Date:

Astronomy

Dec. 17, 2012 Rise Set
Actual Time 7:37 AM CET 4:57 PM CET
Civil Twilight 7:06 AM CET 5:28 PM CET
Nautical Twilight 6:32 AM CET 6:02 PM CET
Astronomical Twilight 5:59 AM CET 6:35 PM CET
Moon 10:36 AM CET (12/17) 10:00 PM CET (12/17)
Length of Visible Light 10h 21m
Length of Day
9h 20m
Waxing Crescent, 22% of the Moon is Illuminated
Dec 17
Waxing Crescent
Dec 20
First Quarter
Dec 28
Full
Jan 5
Last Quarter
Jan 11
New

Hourly Weather History & Observations

Time (CET) Temp. Dew Point Humidity Pressure Visibility Wind Dir Wind Speed Gust Speed Precip Events Conditions
12:55 AM 53.6 °F 44.6 °F 72% 29.98 in - WNW 13.8 mph - N/A   Clear
1:00 AM 54 °F 44 °F 60% 30.00 in 12 mi WNW 13.8 mph - -  
1:55 AM 57.2 °F 42.8 °F 59% 29.98 in 6.2 mi WSW 6.9 mph - N/A   Partly Cloudy
2:55 AM 57.2 °F 42.8 °F 59% 29.98 in 6.2 mi WSW 6.9 mph - N/A   Scattered Clouds
3:55 AM 57.2 °F 42.8 °F 59% 29.98 in 6.2 mi WNW 5.8 mph - N/A   Scattered Clouds
4:55 AM 57.2 °F 41.0 °F 55% 29.98 in 6.2 mi West 4.6 mph - N/A   Scattered Clouds
7:00 AM 56 °F 45 °F 58% 29.95 in 12 mi West 16.1 mph - -   Mostly Cloudy
7:55 AM 55.4 °F 44.6 °F 67% 29.92 in 6.2 mi West 10.4 mph - N/A   Partly Cloudy
8:55 AM 57.2 °F 48.2 °F 72% 29.89 in 6.2 mi SW 12.7 mph - N/A   Mostly Cloudy
9:55 AM 57.2 °F 55.4 °F 94% 29.92 in 6.2 mi SW 17.3 mph - N/A   Mostly Cloudy
10:55 AM 55.4 °F 55.4 °F 100% 29.92 in 6.2 mi SSW 11.5 mph 24.2 mph N/A   Scattered Clouds
11:55 AM 57.2 °F 53.6 °F 88% 29.92 in 6.2 mi WNW 4.6 mph - N/A   Scattered Clouds
12:55 PM 60.8 °F 51.8 °F 72% 29.89 in 6.2 mi WSW 6.9 mph - N/A   Scattered Clouds
1:00 PM 62 °F 53 °F 63% 29.90 in 12 mi WSW 6.9 mph - -   Partly Cloudy
1:55 PM 64.4 °F 44.6 °F 49% 29.86 in 6.2 mi West 10.4 mph - N/A   Partly Cloudy
2:55 PM 64.4 °F 44.6 °F 49% 29.89 in 6.2 mi NNW 3.5 mph - N/A   Partly Cloudy
3:55 PM 59.0 °F 39.2 °F 48% 29.86 in 6.2 mi NW 20.7 mph - N/A   Partly Cloudy
4:55 PM 59.0 °F 39.2 °F 48% 29.83 in 6.2 mi WNW 6.9 mph - N/A   Partly Cloudy
5:55 PM 59.0 °F 35.6 °F 42% 29.86 in - NNW 23.0 mph 41.4 mph N/A   Clear
6:55 PM 57.2 °F 32.0 °F 38% 29.86 in - NW 27.6 mph 46.0 mph N/A   Clear
7:00 PM 57 °F 33 °F 28% 29.86 in 12 mi NW 27.6 mph - -  
7:55 PM 55.4 °F 35.6 °F 47% 29.86 in - Calm Calm - N/A   Clear
8:55 PM 55.4 °F 39.2 °F 54% 29.86 in - NW 25.3 mph 42.6 mph N/A   Clear
9:55 PM 55.4 °F 35.6 °F 47% 29.86 in - NW 25.3 mph 41.4 mph N/A   Clear